STARLINK-1286 (45417 NORAD) Tracking and Keplerian Element Data

This shows tracking and keplerian element data for the satellite.

Feedback or suggestion? Click here.




ElementValue
Catalog45417
NameSTARLINK-1286
Epoch Orbit175
Epoch Day193.91667824
Epoch Year2020
RAAN84.5771
Inclination52.9996
Eccentricity0.0001559
Argument of Perigee83.9752
Mean Anonmoly9.6938
Mean Motion15.04001749
Decay Rate-0.0006673
L11 45417U 20019BK 20193.91667824 -.00066730 00000-0 -48032-2 0 9994
L22 45417 52.9996 84.5771 0001559 83.9752 9.6938 15.04001749 1758

Live tracking and technical data element details for STARLINK-1286 (NORAD 45417). STARLINK-1286 can be tracked NOW for your location showing map with azimuth and elevation plus other details from your city location.

Track the satellite on the map from your city or location and see movement details for azimuth, elevation, latitude, longitude, range, height, and movement on the map or in text.







IsCatalogInMostPopularTable: catalog: 45417, numindb: 31
Update: records affected: 1



GetName: 45417 STARLINK-1286

Hit Count: updated at: Mon, 13 Jul 2020 05:29:48 GMT